Powrót do katalogu

COSMOS 252 DEB

AktywnyLEO
NORAD 15519·DEBRIS·🇷🇺 Russia

Wystrzelony Nov 1, 1968 z Baikonur Cosmodrome

Loading…

Następne Przeloty (najbliższe 24 godziny)

TLE

ŚwieżeSource: Space-Track

Epoka: Sep 14, 2026, 10:38 UTC

1 15519U 68097EF  26257.44307883  .00000220  00000-0  14278-3 0  9999
2 15519  62.3769  51.4934 0869280 304.9511  47.2782 13.07464500831246

Śledź COSMOS 252 DEB w czasie rzeczywistym z AllMySat

Download on the App Store